Change the Weather History Date:

Sunday, May 25, 2014

  Actual Average Record
Temperature  
Mean Temperature 77 °F -  
Max Temperature 88 °F - 95 °F (1965)
Min Temperature 66 °F - 43 °F (1979)
Cooling Degree Days 12    
Month to date cooling degree days 128  
Year to date cooling degree days 164  
Growing Degree Days 26 (Base 50)    
Moisture  
Dew Point 62 °F    
Average Humidity 63    
Maximum Humidity 88    
Minimum Humidity 37    
Precipitation  
Precipitation 0.00 in - 1.00 in (1965)
Month to date precipitation 2.43  
Year to date precipitation 24.78  
Sea Level Pressure  
Sea Level Pressure 30.14 in    
Wind  
Wind Speed 2 mph (West)    
Max Wind Speed 9 mph    
Max Gust Speed -    
Visibility 10 miles    
Events Thunderstorm    
T = Trace of Precipitation, MM = Missing Value Source: NWS Daily Summary

Daily Weather History Graph

Daily Weather History Graph

Search for Another Location

Airport or City:

Trip Planner

Search our weather history database for the weather conditions in past years. The results will help you decide how hot, cold, wet, or windy it might be!

Date:

Astronomy

May. 25, 2014 Rise Set
Actual Time 5:37 AM CDT 7:40 PM CDT
Civil Twilight 5:09 AM CDT 8:07 PM CDT
Nautical Twilight 4:36 AM CDT 8:41 PM CDT
Astronomical Twilight 4:00 AM CDT 9:17 PM CDT
Moon 3:30 AM CDT (5/25) 4:49 PM CDT (5/25)
Length of Visible Light 14h 58m
Length of Day
14h 02m
Waning Crescent, 10% of the Moon is Illuminated
May 25
Waning Crescent
May 28
New
Jun 5
First Quarter
Jun 12
Full
Jun 19
Last Quarter

Hourly Weather History & Observations

Time (CDT) Temp. Heat Index Dew Point Humidity Pressure Visibility Wind Dir Wind Speed Gust Speed Precip Events Conditions
12:15 AM 69.8 °F - 64.4 °F 83% 30.13 in 10.0 mi Calm Calm - N/A   Clear
12:35 AM 69.8 °F - 64.4 °F 83% 30.13 in 10.0 mi Calm Calm - N/A   Clear
1:15 AM 69.8 °F - 64.4 °F 83% 30.13 in 10.0 mi Calm Calm - N/A   Clear
1:35 AM 69.8 °F - 64.4 °F 83% 30.13 in 10.0 mi Calm Calm - N/A   Clear
1:55 AM 69.8 °F - 64.4 °F 83% 30.12 in 10.0 mi Calm Calm - N/A   Clear
2:15 AM 68.0 °F - 64.4 °F 88% 30.12 in 10.0 mi North 3.5 mph - N/A   Clear
2:35 AM 68.0 °F - 64.4 °F 88% 30.12 in 10.0 mi Calm Calm - N/A   Clear
2:55 AM 68.0 °F - 64.4 °F 88% 30.12 in 10.0 mi Calm Calm - N/A   Clear
3:15 AM 68.0 °F - 64.4 °F 88% 30.11 in 10.0 mi Calm Calm - N/A   Clear
3:35 AM 68.0 °F - 64.4 °F 88% 30.11 in 10.0 mi Calm Calm - N/A   Clear
3:55 AM 68.0 °F - 62.6 °F 83% 30.11 in 10.0 mi Calm Calm - N/A   Clear
4:15 AM 66.2 °F - 62.6 °F 88% 30.12 in 10.0 mi Calm Calm - N/A   Clear
4:35 AM 66.2 °F - 62.6 °F 88% 30.12 in 10.0 mi NE 5.8 mph - N/A   Clear
4:55 AM 66.2 °F - 62.6 °F 88% 30.12 in 10.0 mi NE 5.8 mph - N/A   Clear
5:15 AM 66.2 °F - 60.8 °F 83% 30.12 in 10.0 mi NE 4.6 mph - N/A   Clear
5:35 AM 66.2 °F - 62.6 °F 88% 30.13 in 10.0 mi NE 4.6 mph - N/A   Clear
5:55 AM 66.2 °F - 62.6 °F 88% 30.14 in 10.0 mi Calm Calm - N/A   Clear
6:15 AM 66.2 °F - 62.6 °F 88% 30.14 in 10.0 mi Calm Calm - N/A   Clear
6:35 AM 66.2 °F - 62.6 °F 88% 30.15 in 10.0 mi Calm Calm - N/A   Clear
6:55 AM 68.0 °F - 64.4 °F 88% 30.16 in 10.0 mi Calm Calm - N/A   Clear
7:15 AM 71.6 °F - 64.4 °F 78% 30.16 in 10.0 mi Calm Calm - N/A   Clear
7:35 AM 73.4 °F - 62.6 °F 69% 30.16 in 10.0 mi Calm Calm - N/A   Clear
7:55 AM 75.2 °F - 64.4 °F 69% 30.17 in 10.0 mi NNE 4.6 mph - N/A   Clear
8:15 AM 77.0 °F - 66.2 °F 69% 30.18 in 10.0 mi NE 3.5 mph - N/A   Clear
8:35 AM 78.8 °F - 66.2 °F 65% 30.18 in 10.0 mi NE 3.5 mph - N/A   Clear
8:55 AM 78.8 °F - 64.4 °F 61% 30.19 in 10.0 mi NE 3.5 mph - N/A   Clear
9:15 AM 80.6 °F 82.3 °F 64.4 °F 58% 30.19 in 10.0 mi NNE 3.5 mph - N/A   Clear
10:15 AM 80.6 °F 81.8 °F 62.6 °F 54% 30.19 in 10.0 mi Calm Calm - N/A   Clear
10:35 AM 82.4 °F 83.4 °F 62.6 °F 51% 30.19 in 10.0 mi SE 4.6 mph - N/A   Scattered Clouds
10:55 AM 82.4 °F 83.4 °F 62.6 °F 51% 30.19 in 10.0 mi Calm Calm - N/A   Mostly Cloudy
11:15 AM 84.2 °F 85.0 °F 62.6 °F 48% 30.18 in 10.0 mi West 4.6 mph - N/A   Partly Cloudy
11:35 AM 82.4 °F 83.4 °F 62.6 °F 51% 30.18 in 10.0 mi ESE 4.6 mph - N/A   Scattered Clouds
11:55 AM 82.4 °F 83.4 °F 62.6 °F 51% 30.18 in 10.0 mi Calm Calm - N/A   Mostly Cloudy
12:15 PM 84.2 °F 85.0 °F 62.6 °F 48% 30.17 in 10.0 mi NNE 4.6 mph - N/A   Partly Cloudy
12:35 PM 84.2 °F 84.4 °F 60.8 °F 45% 30.17 in 10.0 mi NNE 4.6 mph - N/A   Partly Cloudy
12:55 PM 84.2 °F 84.4 °F 60.8 °F 45% 30.16 in 10.0 mi West 5.8 mph - N/A   Scattered Clouds
1:15 PM 86.0 °F 86.1 °F 60.8 °F 43% 30.16 in 9.0 mi ESE 5.8 mph - N/A   Partly Cloudy
1:35 PM 86.0 °F 84.9 °F 57.2 °F 37% 30.16 in 10.0 mi SW 3.5 mph - N/A   Partly Cloudy
1:55 PM 84.2 °F 83.5 °F 57.2 °F 40% 30.15 in 10.0 mi East 4.6 mph - N/A   Scattered Clouds
2:15 PM 87.8 °F 87.6 °F 60.8 °F 40% 30.15 in 9.0 mi SW 8.1 mph - N/A   Mostly Cloudy
2:35 PM 87.8 °F 87.6 °F 60.8 °F 40% 30.15 in 10.0 mi South 6.9 mph - N/A   Partly Cloudy
2:55 PM 87.8 °F 87.1 °F 59.0 °F 38% 30.14 in 10.0 mi Calm Calm - N/A   Clear
3:15 PM 87.8 °F 87.6 °F 60.8 °F 40% 30.14 in 10.0 mi South 3.5 mph - N/A   Partly Cloudy
3:35 PM 87.8 °F 87.1 °F 59.0 °F 38% 30.13 in 10.0 mi SSW 6.9 mph - N/A   Partly Cloudy
3:55 PM 87.8 °F 87.1 °F 59.0 °F 38% 30.12 in 10.0 mi South 9.2 mph - N/A   Clear
4:35 PM 86.0 °F 85.4 °F 59.0 °F 40% 30.11 in 10.0 mi Calm Calm - N/A   Partly Cloudy
4:55 PM 87.8 °F 87.1 °F 59.0 °F 38% 30.11 in 10.0 mi West 6.9 mph - N/A   Scattered Clouds
5:15 PM 87.8 °F 87.1 °F 59.0 °F 38% 30.11 in 10.0 mi SW 4.6 mph - N/A Thunderstorm Partly Cloudy
5:35 PM 86.0 °F 85.4 °F 59.0 °F 40% 30.11 in 10.0 mi West 5.8 mph - N/A Thunderstorm Thunderstorm
5:55 PM 86.0 °F 84.9 °F 57.2 °F 37% 30.11 in 10.0 mi West 5.8 mph - N/A Thunderstorm Thunderstorm
6:15 PM 84.2 °F 83.5 °F 57.2 °F 40% 30.11 in 10.0 mi WNW 4.6 mph - N/A Thunderstorm Clear
6:35 PM 84.2 °F 83.5 °F 57.2 °F 40% 30.11 in 10.0 mi WNW 5.8 mph - N/A   Clear
6:55 PM 82.4 °F 82.5 °F 59.0 °F 45% 30.12 in 10.0 mi West 3.5 mph - N/A   Clear
7:15 PM 82.4 °F 82.5 °F 59.0 °F 45% 30.12 in 10.0 mi WNW 4.6 mph - N/A   Clear
7:35 PM 80.6 °F 81.1 °F 59.0 °F 48% 30.13 in 10.0 mi WNW 4.6 mph - N/A   Clear
7:55 PM 78.8 °F - 62.6 °F 57% 30.14 in 10.0 mi Calm Calm - N/A   Clear
8:15 PM 77.0 °F - 62.6 °F 61% 30.15 in 10.0 mi Calm Calm - N/A   Clear
8:35 PM 77.0 °F - 62.6 °F 61% 30.15 in 10.0 mi Calm Calm - N/A   Clear
8:55 PM 75.2 °F - 62.6 °F 65% 30.14 in 10.0 mi Calm Calm - N/A   Clear
9:15 PM 75.2 °F - 62.6 °F 65% 30.14 in 10.0 mi Calm Calm - N/A   Clear
9:35 PM 73.4 °F - 62.6 °F 69% 30.15 in 10.0 mi Calm Calm - N/A   Clear
9:55 PM 73.4 °F - 62.6 °F 69% 30.16 in 10.0 mi Calm Calm - N/A   Clear
10:15 PM 71.6 °F - 62.6 °F 73% 30.16 in 10.0 mi Calm Calm - N/A   Clear
10:35 PM 71.6 °F - 62.6 °F 73% 30.16 in 10.0 mi Calm Calm - N/A   Clear
10:55 PM 71.6 °F - 62.6 °F 73% 30.17 in 10.0 mi SSW 8.1 mph - N/A   Clear
11:15 PM 71.6 °F - 62.6 °F 73% 30.17 in 10.0 mi SW 4.6 mph - N/A   Clear
11:35 PM 71.6 °F - 62.6 °F 73% 30.16 in 10.0 mi SW 6.9 mph - N/A   Clear
11:55 PM 71.6 °F - 62.6 °F 73% 30.17 in 10.0 mi SSW 3.5 mph - N/A   Clear